FW5335 Weather Reports


time (UTC)temp
F
wind
direction
speed
knots
gust
knots
rain 1hr
in
rain 24hr
in
rain mn
in
humidity
%
barometer
mb
20260507075539 53 113 1.7 2.6 0.00 0.00 0.00 78 1016.3
20260507074519 52 68 1.7 3.5 0.00 0.00 0.00 79 1016.1
20260507073520 52 68 0.9 4.3 0.00 0.00 0.00 79 1016.0
20260507072539 51 68 2.6 3.5 0.00 0.00 0.00 79 1016.0
20260507071519 51 45 0.9 1.7 0.00 0.00 0.00 80 1016.0
20260507070524 50 45 0.9 2.6 0.00 0.00 0.00 81 1015.9
20260507065519 50 68 1.7 3.5 0.00 0.00 0.00 81 1015.8
20260507064520 49 68 1.7 3.5 0.00 0.00 0.00 82 1015.7
20260507063520 48 68 1.7 2.6 0.00 0.00 0.00 82 1015.7
20260507062519 48 45 0.9 2.6 0.00 0.00 0.00 83 1015.6
20260507061519 47 45 0.9 2.6 0.00 0.00 0.00 84 1015.6
20260507060534 47 45 0.9 1.7 0.00 0.00 0.00 84 1015.8
20260507055520 46 0.0 0.0 0.00 0.00 0.00 85 1015.8
20260507054520 46 0.0 0.0 0.00 0.00 0.00 85 1015.7
20260507053519 46 0.0 0.0 0.00 0.00 0.00 85 1015.7
20260507052519 46 0.0 0.0 0.00 0.00 0.00 84 1015.5
20260507051539 46 0.0 0.0 0.00 0.00 0.00 84 1015.5
20260507050539 46 0.0 0.0 0.00 0.00 0.00 83 1015.5
20260507045519 46 0.0 1.7 0.00 0.00 0.00 83 1015.5
20260507044603 46 45 0.9 1.7 0.00 0.00 0.00 83 1015.3
20260507043520 46 68 1.7 3.5 0.00 0.00 0.00 83 1015.2
20260507042539 46 68 1.7 3.5 0.00 0.00 0.00 82 1015.2
20260507041520 47 68 0.9 3.5 0.00 0.00 0.00 82 1015.2
20260507040519 47 90 0.9 3.5 0.00 0.00 0.00 82 1015.2
20260507035517 47 90 1.7 3.5 0.00 0.00 0.00 81 1015.2
20260507034519 47 90 2.6 4.3 0.00 0.00 0.00 81 1015.1
20260507033519 48 90 2.6 4.3 0.00 0.00 0.00 81 1015.1
20260507032518 48 113 1.7 5.2 0.00 0.00 0.00 81 1015.1
20260507031524 48 90 2.6 4.3 0.00 0.00 0.00 81 1015.1
20260507030538 48 68 2.6 5.2 0.00 0.00 0.00 82 1015.1
20260507025519 48 90 1.7 2.6 0.00 0.00 0.00 82 1015.3
20260507024518 48 68 2.6 4.3 0.00 0.00 0.00 82 1015.3
20260507023519 48 90 1.7 2.6 0.00 0.00 0.00 83 1015.3
20260507022633 48 90 0.9 3.5 0.00 0.00 0.00 83 1015.3
20260507021519 49 90 2.6 5.2 0.00 0.00 0.00 83 1015.3
20260507020518 49 90 0.9 3.5 0.00 0.00 0.00 83 1015.3
20260507015518 49 90 1.7 2.6 0.00 0.00 0.00 84 1015.1
20260507014537 49 90 1.7 3.5 0.00 0.00 0.00 83 1015.1
20260507013518 49 90 1.7 3.5 0.00 0.00 0.00 83 1015.2
20260507012519 49 90 1.7 2.6 0.00 0.00 0.00 83 1015.0
20260507011519 49 90 2.6 4.3 0.00 0.00 0.00 83 1015.0
20260507010523 49 203 1.7 2.6 0.00 0.00 0.00 82 1015.1
20260507005520 49 203 1.7 2.6 0.00 0.00 0.00 82 1015.0
20260507004518 50 203 0.9 1.7 0.00 0.00 0.00 82 1015.0
20260507003541 50 0.0 1.7 0.00 0.00 0.00 81 1015.0
20260507002522 50 225 1.7 2.6 0.00 0.00 0.00 81 1015.2
20260507001517 50 0.0 2.6 0.00 0.00 0.00 81 1015.2
20260507000523 50 0.0 0.0 0.00 0.00 0.00 80 1015.2
20260506235538 50 0.0 1.7 0.00 0.00 0.00 80 1015.2
20260506234519 50 0.0 0.9 0.00 0.00 0.00 80 1015.2
20260506233518 50 0.0 0.0 0.00 0.00 0.00 81 1015.3
20260506232518 50 0.0 1.7 0.00 0.00 0.00 79 1015.4
20260506231518 50 0.0 1.7 0.00 0.00 0.00 79 1015.3
20260506230519 51 0.0 1.7 0.00 0.00 0.00 79 1015.3
20260506225519 51 0.0 1.7 0.00 0.00 0.00 79 1015.3
20260506224518 51 0.0 0.9 0.00 0.00 0.00 79 1015.3
20260506223524 51 0.0 0.0 0.00 0.00 0.00 79 1015.4
20260506222518 51 0.0 0.0 0.00 0.00 0.00 77 1015.3
20260506221518 51 0.0 1.7 0.00 0.00 0.00 77 1015.0
20260506220518 51 0.0 0.9 0.00 0.00 0.00 77 1015.0
20260506215518 51 0.0 0.0 0.00 0.00 0.00 76 1015.1
20260506214538 52 225 0.9 1.7 0.00 0.00 0.00 75 1015.0
20260506213526 52 225 0.9 1.7 0.00 0.00 0.00 74 1015.3
20260506212538 52 225 0.9 1.7 0.00 0.00 0.00 74 1015.3
20260506211523 52 0.0 0.9 0.00 0.00 0.00 73 1015.1
20260506210521 52 225 0.9 2.6 0.00 0.00 0.00 72 1015.1
20260506205524 53 248 1.7 2.6 0.00 0.00 0.00 72 1015.1
20260506204519 53 248 2.6 5.2 0.00 0.00 0.00 71 1014.8
20260506203528 53 225 0.9 3.5 0.00 0.00 0.00 73 1014.8
20260506202538 53 90 0.9 2.6 0.00 0.00 0.00 72 1014.8
20260506201546 54 0.0 0.9 0.00 0.00 0.00 71 1014.6
20260506195538 55 0.0 0.9 0.00 0.00 0.00 69 1014.8
20260506194539 55 0.0 0.9 0.00 0.00 0.00 69 1014.6
20260506193517 55 0.0 0.0 0.00 0.00 0.00 68 1014.5
20260506192518 56 0.0 0.9 0.00 0.00 0.00 66 1014.5
20260506191518 56 0.0 0.9 0.00 0.00 0.00 65 1014.5
20260506190520 56 0.0 0.9 0.00 0.00 0.00 64 1014.4
20260506185518 57 0.0 0.9 0.00 0.00 0.00 62 1014.6
20260506184518 57 90 0.9 1.7 0.00 0.00 0.00 57 1014.2
20260506183539 57 90 1.7 2.6 0.00 0.00 0.00 55 1014.4
20260506182518 57 90 1.7 3.5 0.00 0.00 0.00 55 1014.4
20260506181538 58 90 0.9 2.6 0.00 0.00 0.00 56 1014.4
20260506180518 58 90 0.9 1.7 0.00 0.00 0.00 55 1014.5
20260506175543 58 90 0.9 1.7 0.00 0.00 0.00 55 1014.3
20260506174520 58 68 0.9 2.6 0.00 0.00 0.00 56 1014.3
20260506173646 58 90 0.9 3.5 0.00 0.00 0.00 55 1014.2
20260506172520 58 68 1.7 2.6 0.00 0.00 0.00 53 1014.4
20260506171529 59 113 0.9 3.5 0.00 0.00 0.00 51 1014.4
20260506170520 59 90 0.9 4.3 0.00 0.00 0.00 53 1014.2
20260506165540 59 90 1.7 4.3 0.00 0.00 0.00 53 1014.3
20260506164520 59 90 2.6 5.2 0.00 0.00 0.00 54 1014.1
20260506163540 59 113 1.7 4.3 0.00 0.00 0.00 55 1014.1
20260506162519 59 113 1.7 3.5 0.00 0.00 0.00 54 1014.0
20260506161518 59 135 1.7 5.2 0.00 0.00 0.00 51 1014.0
20260506160520 59 113 1.7 3.5 0.00 0.00 0.00 53 1014.1
20260506155520 59 135 1.7 3.5 0.00 0.00 0.00 51 1014.3
20260506154520 59 135 1.7 4.3 0.00 0.00 0.00 52 1014.3
20260506153520 59 45 1.7 6.1 0.00 0.00 0.00 55 1014.4
20260506152539 59 135 2.6 4.3 0.00 0.00 0.00 52 1014.3
20260506151520 59 68 1.7 3.5 0.00 0.00 0.00 52 1014.3
20260506150521 60 0 2.6 4.3 0.00 0.00 0.00 52 1014.4
20260506145524 60 68 2.6 5.2 0.00 0.00 0.00 51 1014.5
20260506144519 60 90 1.7 6.1 0.00 0.00 0.00 51 1014.6
20260506143520 61 113 1.7 5.2 0.00 0.00 0.00 48 1014.5
20260506142520 61 0 1.7 4.3 0.00 0.00 0.00 53 1014.6
20260506141539 61 135 1.7 5.2 0.00 0.00 0.00 51 1014.6
20260506140520 60 203 2.6 5.2 0.00 0.00 0.00 51 1014.6
20260506135540 60 158 2.6 6.1 0.00 0.00 0.00 49 1014.9
20260506134519 61 68 2.6 6.1 0.00 0.00 0.00 51 1014.9
20260506133519 61 90 2.6 7.0 0.00 0.00 0.00 50 1015.1
20260506132519 61 68 1.7 4.3 0.00 0.00 0.00 52 1014.9
20260506131539 60 90 2.6 6.1 0.00 0.00 0.00 56 1015.0
20260506130520 59 45 1.7 5.2 0.00 0.00 0.00 57 1015.1
20260506125520 59 68 2.6 7.0 0.00 0.00 0.00 56 1015.1
20260506124524 58 135 1.7 3.5 0.00 0.00 0.00 54 1015.2
20260506123520 58 113 3.5 7.0 0.00 0.00 0.00 54 1015.1
20260506122519 57 180 1.7 4.3 0.00 0.00 0.00 58 1015.0
20260506121519 57 45 2.6 5.2 0.00 0.00 0.00 55 1014.9
20260506120518 57 90 2.6 7.8 0.00 0.00 0.00 56 1015.0
20260506115519 57 68 3.5 6.1 0.00 0.00 0.00 60 1015.0
20260506114519 56 68 2.6 6.1 0.00 0.00 0.00 61 1015.1
20260506113520 56 90 2.6 7.8 0.00 0.00 0.00 61 1015.1
20260506112538 56 23 2.6 6.1 0.00 0.00 0.00 61 1015.4
20260506111520 56 113 1.7 3.5 0.00 0.00 0.00 60 1015.3
20260506110539 56 23 2.6 6.1 0.00 0.00 0.00 60 1015.4
20260506105519 56 23 2.6 4.3 0.00 0.00 0.00 61 1015.4